AKST,Max TemperatureF,Mean TemperatureF,Min TemperatureF,Max Dew PointF,MeanDew PointF,Min DewpointF,Max Humidity, Mean Humidity, Min Humidity, Max Sea Level PressureIn, Mean Sea Level PressureIn, Min Sea Level PressureIn, Max VisibilityMiles, Mean VisibilityMiles, Min VisibilityMiles, Max Wind SpeedMPH, Mean Wind SpeedMPH, Max Gust SpeedMPH,PrecipitationIn, CloudCover, Events, WindDirDegrees
2012-11-1,48,42,35,38,31,18,100,70,33,29.77,29.69,29.57,10,10,10,18,5,26,0.00,4,,100
2012-11-2,50,46,42,45,39,32,100,79,54,29.55,29.48,29.37,10,9,2,24,15,36,0.23,7,Rain,124
2012-11-3,48,46,44,41,39,36,87,76,66,29.56,29.48,29.39,10,9,4,24,16,34,0.33,8,Rain,127
2012-11-4,52,48,44,45,39,35,100,75,57,29.57,29.14,28.81,10,9,2,20,11,33,0.10,8,Rain,107
2012-11-5,46,44,41,45,41,37,97,87,73,30.01,29.85,29.46,10,8,2,22,13,43,0.75,8,Rain,165
2012-11-6,43,41,39,40,38,36,93,86,79,29.87,29.74,29.65,10,10,7,14,7,,0.27,8,Rain,109
2012-11-7,44,38,33,39,35,32,100,87,67,30.28,30.06,29.77,10,10,10,10,5,,0.01,4,Rain,98
2012-11-8,39,34,28,33,29,26,100,88,65,30.35,30.32,30.28,10,10,10,9,2,,0.00,0,,63
2012-11-9,36,31,26,30,27,24,100,85,73,30.27,30.17,30.02,10,10,10,6,2,,0.00,2,,98
2012-11-10,39,36,33,34,29,25,89,71,57,30.02,29.80,29.65,10,10,7,23,10,32,0.07,8,Rain,101
2012-11-11,43,40,37,41,37,32,100,86,75,29.69,29.62,29.59,10,9,6,24,12,34,0.42,8,Rain,85
2012-11-12,45,42,39,43,41,39,100,96,86,29.94,29.82,29.70,10,10,4,6,1,,0.06,8,Rain,20
2012-11-13,44,42,41,45,42,39,100,97,89,29.97,29.95,29.93,10,8,2,8,4,,0.12,8,Rain,118
2012-11-14,45,43,41,43,40,37,100,90,74,29.97,29.80,29.64,10,7,2,25,9,34,0.98,8,Rain,152
2012-11-15,45,42,39,39,36,34,93,81,65,29.75,29.64,29.34,10,9,4,16,11,23,0.26,7,Rain,122
2012-11-16,45,42,39,37,34,32,87,75,63,29.35,29.29,29.20,10,10,7,21,14,29,0.05,8,Rain,104
2012-11-17,42,38,34,35,30,24,86,72,55,29.31,29.09,28.97,10,10,9,17,3,25,0.00,3,Snow,88
2012-11-18,42,37,33,32,27,24,89,64,53,29.18,29.12,29.06,10,9,2,24,12,36,0.00,8,Snow,98
2012-11-19,43,41,39,29,27,23,65,58,49,29.32,29.15,29.02,10,10,10,24,14,36,0.00,6,,111
2012-11-20,43,40,37,30,25,19,73,57,45,29.45,29.40,29.35,10,10,10,23,12,33,0.00,3,,76
2012-11-21,39,38,37,29,25,20,68,60,46,29.80,29.64,29.41,10,10,10,24,9,32,0.00,6,,104
2012-11-22,44,40,37,34,31,26,73,66,57,29.78,29.39,29.23,10,10,10,29,20,45,0.00,6,Rain,113
2012-11-23,45,44,42,36,33,31,76,68,58,29.37,29.34,29.33,10,10,10,22,17,33,0.00,5,Rain,111
2012-11-24,42,39,36,38,36,34,97,87,76,30.08,29.70,29.37,10,10,7,20,10,30,0.35,8,Rain,67
2012-11-25,39,38,36,39,37,35,100,97,93,30.18,30.14,30.09,10,7,2,9,6,,0.62,8,Rain,99
2012-11-26,41,36,30,36,34,31,100,94,79,30.22,30.16,30.06,10,10,10,9,3,,0.00,2,,351
2012-11-27,44,38,33,35,32,29,96,79,55,30.04,29.86,29.73,10,10,10,15,4,21,0.00,5,,358
2012-11-28,46,42,39,33,27,23,61,55,39,29.72,29.53,29.34,10,10,10,22,12,31,0.00,8,,81
2012-11-29,37,35,33,34,30,26,96,80,65,29.33,29.26,29.23,10,7,2,18,10,29,0.12,8,Rain-Snow,106
2012-11-30,37,34,32,28,24,18,73,64,54,29.28,29.22,29.18,10,10,10,13,6,18,0.00,3,,89